Flag for Austria Weather past 2 weeks in Amstetten, Lower Austria, Austria

Now
76 °F

Clear.


Feels Like: 78 °F
Forecast: 59 / 90 °F
Wind: N/A

Location: Linz / Hoersching-Flughafen

Current Time: Aug 3, 2015 at 10:19:54 PM

Latest Report: Aug 3, 2015 at 9:00 PM


Visibility: 28 mi

Pressure: 30.01 "Hg

Humidity: 51%

Dew point: 56 °F

Location of AmstettenLocation

Historic Weather in Amstetten — Graph

°F

Amstetten temperature yesterday

Maximum temperature yesterday: 69 °F (at 12:00 AM)
Minimum temperature yesterday: 61 °F (at 7:00 AM)
Average temperature yesterday: 64 °F

Past Weeks' High & Low Weather Summary

 TemperatureHumidityPressure
High97 °F (Jul 22, 3:00 PM)100% (Aug 3, 3:00 AM)30.15 "Hg (Aug 3, 3:00 AM)
Low54 °F (Jul 31, 6:00 AM)21% (Jul 22, 3:00 PM)29.66 "Hg (Jul 25, 3:00 AM)
Average70 °F64%29.91 "Hg
* Reported Jul 19 9:00 PM — Aug 3 9:00 PM, Amstetten, Weather by CustomWeather, © 2015

Note: Actual official high and low records may vary slightly from our data, if they occured in-between our weather recording intervals... More about our weather records

Advertising

Amstetten weather history for previous 24 hours

 ConditionsComfort  
Time TempWeatherWind HumidityBarometerVisibility
9:00 PM
Mon, Aug 3
76 °FClear.N/A51%30.01 "Hg28 mi
8:00 PM80 °FPassing clouds.N/A42%30.00 "Hg25 mi
7:00 PM82 °FPassing clouds.N/A38%30.00 "Hg28 mi
6:00 PM82 °FPassing clouds.N/A39%30.01 "Hg25 mi
5:00 PM82 °FPassing clouds.N/A40%30.03 "Hg22 mi
4:00 PM82 °FPassing clouds.N/A39%30.04 "Hg25 mi
3:00 PM79 °FPassing clouds.N/A45%30.06 "Hg15 mi
2:00 PM76 °FPassing clouds.N/A49%30.07 "Hg15 mi
1:00 PM75 °FPassing clouds.N/A52%30.09 "Hg22 mi
12:00 PM72 °FPassing clouds.N/A65%30.10 "Hg17 mi
11:00 AM67 °FPassing clouds.N/A75%30.12 "Hg9 mi
10:00 AM64 °FScattered clouds.N/A83%30.12 "Hg6 mi
9:00 AM62 °FLow clouds.N/A87%30.13 "Hg5 mi
8:00 AM60 °FLow clouds.N/A94%30.13 "Hg3 mi
7:00 AM59 °FLow clouds.N/A99%30.13 "Hg1 mi
5:00 AM59 °FLight snow. Dense fog.N/A100%30.12 "Hg1 mi
4:00 AM59 °FLight snow. Dense fog.N/A100%30.13 "Hg0 mi
3:00 AM59 °FLight snow. Dense fog.N/A100%30.13 "Hg0 mi
2:00 AM59 °FPassing clouds.N/A98%30.14 "Hg1 mi
1:00 AM60 °FPassing clouds.N/A96%30.14 "Hg2 mi
12:00 AM61 °FCool.N/A96%30.15 "Hg3 mi
11:00 PM
Sun, Aug 2
62 °FPassing clouds.N/A95%30.15 "Hg5 mi
10:00 PM64 °FPassing clouds.N/A89%30.14 "Hg7 mi
Weather by CustomWeather, © 2015

See weather overviewHow to use our weather pages